| time (UTC) | temp F | wind direction | speed knots | gust knots | rain 1hr in | rain 24hr in | rain mn in | humidity % | barometer mb |
| 20260507233006 | 37 | 192 | 0.0 | 0.0 | 0.00 | 0.00 | 0.00 | 64 | 1020.6 |
| 20260507231502 | 38 | 192 | 0.0 | 0.0 | 0.00 | 0.00 | 0.00 | 61 | 1020.4 |
| 20260507230106 | 38 | 192 | 0.0 | 0.0 | 0.00 | 0.00 | 0.00 | 61 | 1020.3 |
| 20260507224557 | 39 | 192 | 0.0 | 0.0 | 0.00 | 0.00 | 0.00 | 59 | 1020.1 |
| 20260507223059 | 40 | 192 | 0.0 | 0.0 | 0.00 | 0.00 | 0.00 | 57 | 1020.1 |
| 20260507221554 | 41 | 192 | 0.0 | 0.0 | 0.00 | 0.00 | 0.00 | 55 | 1020.1 |
| 20260507220049 | 41 | 244 | 0.0 | 0.0 | 0.00 | 0.00 | 0.00 | 54 | 1020.0 |
| 20260507214610 | 42 | 244 | 0.0 | 0.0 | 0.00 | 0.00 | 0.00 | 53 | 1020.0 |
| 20260507213058 | 42 | 251 | 0.0 | 0.0 | 0.00 | 0.00 | 0.00 | 52 | 1019.8 |
| 20260507211553 | 43 | 251 | 0.0 | 0.0 | 0.00 | 0.00 | 0.00 | 51 | 1019.7 |
| 20260507210051 | 45 | 251 | 0.0 | 0.0 | 0.00 | 0.00 | 0.00 | 48 | 1019.6 |
| 20260507204542 | 46 | 251 | 0.0 | 0.0 | 0.00 | 0.00 | 0.00 | 45 | 1019.3 |
| 20260507203049 | 48 | 82 | 0.0 | 0.0 | 0.00 | 0.00 | 0.00 | 41 | 1019.1 |
| 20260507201544 | 48 | 50 | 0.0 | 0.0 | 0.00 | 0.00 | 0.00 | 43 | 1019.0 |
| 20260507200040 | 49 | 64 | 0.0 | 0.0 | 0.00 | 0.00 | 0.00 | 39 | 1019.0 |
| 20260507194600 | 51 | 141 | 0.0 | 7.0 | 0.00 | 0.00 | 0.00 | 36 | 1018.7 |
| 20260507193034 | 51 | 132 | 4.3 | 7.8 | 0.00 | 0.00 | 0.00 | 35 | 1018.5 |
| 20260507191533 | 52 | 125 | 3.5 | 7.8 | 0.00 | 0.00 | 0.00 | 35 | 1018.3 |
| 20260507190030 | 53 | 140 | 3.5 | 9.6 | 0.00 | 0.00 | 0.00 | 33 | 1018.1 |
| 20260507184530 | 54 | 138 | 3.5 | 11.3 | 0.00 | 0.00 | 0.00 | 33 | 1017.8 |
| 20260507183033 | 55 | 159 | 5.2 | 9.6 | 0.00 | 0.00 | 0.00 | 33 | 1017.7 |
| 20260507181525 | 55 | 146 | 0.9 | 11.3 | 0.00 | 0.00 | 0.00 | 33 | 1017.5 |
| 20260507180028 | 56 | 133 | 4.3 | 9.6 | 0.00 | 0.00 | 0.00 | 33 | 1017.4 |
| 20260507174534 | 56 | 168 | 5.2 | 11.3 | 0.00 | 0.00 | 0.00 | 32 | 1017.2 |
| 20260507173031 | 57 | 148 | 6.1 | 12.2 | 0.00 | 0.00 | 0.00 | 32 | 1017.1 |
| 20260507171522 | 58 | 86 | 3.5 | 11.3 | 0.00 | 0.00 | 0.00 | 30 | 1017.0 |
| 20260507170021 | 59 | 114 | 0.0 | 7.8 | 0.00 | 0.00 | 0.00 | 29 | 1017.0 |
| 20260507164520 | 60 | 130 | 2.6 | 12.2 | 0.00 | 0.00 | 0.00 | 28 | 1016.8 |
| 20260507163019 | 60 | 121 | 0.9 | 8.7 | 0.00 | 0.00 | 0.00 | 28 | 1016.7 |
| 20260507161518 | 62 | 86 | 0.0 | 2.6 | 0.00 | 0.00 | 0.00 | 25 | 1016.7 |
| 20260507160022 | 61 | 352 | 0.0 | 2.6 | 0.00 | 0.00 | 0.00 | 25 | 1016.8 |
| 20260507154529 | 62 | 330 | 0.0 | 1.7 | 0.00 | 0.00 | 0.00 | 25 | 1016.9 |
| 20260507153029 | 62 | 339 | 0.0 | 2.6 | 0.00 | 0.00 | 0.00 | 25 | 1016.8 |
| 20260507151515 | 61 | 298 | 0.0 | 1.7 | 0.00 | 0.00 | 0.00 | 26 | 1016.7 |
| 20260507150016 | 61 | 316 | 0.0 | 2.6 | 0.00 | 0.00 | 0.00 | 24 | 1016.8 |
| 20260507144513 | 61 | 323 | 0.0 | 3.5 | 0.00 | 0.00 | 0.00 | 26 | 1016.8 |
| 20260507143021 | 62 | 342 | 0.0 | 1.7 | 0.00 | 0.00 | 0.00 | 27 | 1017.0 |
| 20260507141510 | 60 | 296 | 0.0 | 2.6 | 0.00 | 0.00 | 0.00 | 27 | 1017.0 |
| 20260507140012 | 61 | 346 | 0.0 | 1.7 | 0.00 | 0.00 | 0.00 | 27 | 1017.0 |
| 20260507134508 | 59 | 334 | 0.0 | 0.9 | 0.00 | 0.00 | 0.00 | 29 | 1017.0 |
| 20260507133006 | 59 | 178 | 0.0 | 1.7 | 0.00 | 0.00 | 0.00 | 33 | 1017.1 |
| 20260507131508 | 58 | 166 | 0.0 | 9.6 | 0.00 | 0.00 | 0.00 | 28 | 1017.2 |
| 20260507130004 | 58 | 251 | 0.9 | 7.0 | 0.00 | 0.00 | 0.00 | 26 | 1017.1 |
| 20260507124502 | 58 | 273 | 0.0 | 8.7 | 0.00 | 0.00 | 0.00 | 26 | 1017.3 |
| 20260507123101 | 57 | 188 | 0.0 | 7.8 | 0.00 | 0.00 | 0.00 | 27 | 1017.3 |
| 20260507121559 | 57 | 217 | 1.7 | 8.7 | 0.00 | 0.00 | 0.00 | 29 | 1017.2 |
| 20260507120059 | 57 | 288 | 6.1 | 10.4 | 0.00 | 0.00 | 0.00 | 28 | 1017.3 |
| 20260507114558 | 56 | 261 | 0.0 | 7.8 | 0.00 | 0.00 | 0.00 | 27 | 1017.3 |
| 20260507113100 | 56 | 205 | 2.6 | 10.4 | 0.00 | 0.00 | 0.00 | 30 | 1017.3 |
| 20260507111552 | 54 | 278 | 0.0 | 5.2 | 0.00 | 0.00 | 0.00 | 31 | 1017.5 |
| 20260507110051 | 55 | 182 | 0.0 | 9.6 | 0.00 | 0.00 | 0.00 | 26 | 1017.5 |
| 20260507104549 | 54 | 143 | 0.0 | 7.8 | 0.00 | 0.00 | 0.00 | 25 | 1017.4 |
| 20260507103045 | 54 | 261 | 2.6 | 8.7 | 0.00 | 0.00 | 0.00 | 31 | 1017.5 |
| 20260507101544 | 53 | 186 | 1.7 | 8.7 | 0.00 | 0.00 | 0.00 | 31 | 1017.3 |
| 20260507100045 | 52 | 266 | 2.6 | 8.7 | 0.00 | 0.00 | 0.00 | 32 | 1017.3 |
| 20260507094538 | 52 | 251 | 2.6 | 9.6 | 0.00 | 0.00 | 0.00 | 33 | 1017.2 |
| 20260507093045 | 52 | 251 | 2.6 | 9.6 | 0.00 | 0.00 | 0.00 | 31 | 1017.2 |
| 20260507091535 | 51 | 261 | 1.7 | 8.7 | 0.00 | 0.00 | 0.00 | 33 | 1017.3 |
| 20260507090031 | 51 | 284 | 1.7 | 7.8 | 0.00 | 0.00 | 0.00 | 34 | 1017.4 |
| 20260507084528 | 50 | 317 | 0.0 | 8.7 | 0.00 | 0.00 | 0.00 | 37 | 1017.5 |
| 20260507083024 | 49 | 251 | 4.3 | 10.4 | 0.00 | 0.00 | 0.00 | 37 | 1017.5 |
| 20260507081520 | 49 | 261 | 1.7 | 8.7 | 0.00 | 0.00 | 0.00 | 39 | 1017.5 |
| 20260507080016 | 48 | 224 | 5.2 | 10.4 | 0.00 | 0.00 | 0.00 | 40 | 1017.3 |
| 20260507074511 | 47 | 265 | 6.1 | 11.3 | 0.00 | 0.00 | 0.00 | 42 | 1017.3 |
| 20260507073006 | 46 | 261 | 3.5 | 8.7 | 0.00 | 0.00 | 0.00 | 44 | 1017.3 |
| 20260507071508 | 45 | 300 | 3.5 | 9.6 | 0.00 | 0.00 | 0.00 | 45 | 1017.3 |
| 20260507070005 | 44 | 208 | 2.6 | 8.7 | 0.00 | 0.00 | 0.00 | 47 | 1017.4 |
| 20260507064558 | 43 | 230 | 0.9 | 7.8 | 0.00 | 0.00 | 0.00 | 50 | 1017.4 |
| 20260507063057 | 42 | 236 | 3.5 | 8.7 | 0.00 | 0.00 | 0.00 | 51 | 1017.4 |
| 20260507061558 | 40 | 304 | 0.9 | 5.2 | 0.00 | 0.00 | 0.00 | 56 | 1017.4 |
| 20260507060056 | 39 | 354 | 0.0 | 2.6 | 0.00 | 0.00 | 0.00 | 63 | 1017.4 |
| 20260507054551 | 38 | 294 | 0.0 | 4.3 | 0.00 | 0.00 | 0.00 | 62 | 1017.4 |
| 20260507053116 | 37 | 280 | 1.7 | 7.0 | 0.00 | 0.00 | 0.00 | 65 | 1017.3 |
| 20260507051557 | 35 | 222 | 0.9 | 5.2 | 0.00 | 0.00 | 0.00 | 67 | 1017.3 |
| 20260507050047 | 34 | 288 | 0.0 | 0.0 | 0.00 | 0.00 | 0.00 | 70 | 1017.2 |
| 20260507044546 | 33 | 276 | 0.0 | 0.0 | 0.00 | 0.00 | 0.00 | 72 | 1017.0 |
| 20260507043044 | 32 | 282 | 0.0 | 0.0 | 0.00 | 0.00 | 0.00 | 74 | 1017.0 |
| 20260507041546 | 31 | 280 | 0.0 | 0.0 | 0.00 | 0.00 | 0.00 | 74 | 1016.9 |
| 20260507040040 | 31 | 240 | 0.0 | 0.0 | 0.00 | 0.00 | 0.00 | 72 | 1016.8 |
| 20260507034539 | 32 | 261 | 1.7 | 3.5 | 0.00 | 0.00 | 0.00 | 73 | 1016.7 |
| 20260507033042 | 32 | 281 | 0.0 | 0.0 | 0.00 | 0.00 | 0.00 | 74 | 1016.6 |
| 20260507031531 | 32 | 283 | 0.0 | 2.6 | 0.00 | 0.00 | 0.00 | 71 | 1016.4 |
| 20260507030031 | 32 | 303 | 0.0 | 2.6 | 0.00 | 0.00 | 0.00 | 70 | 1016.5 |
| 20260507024531 | 32 | 300 | 0.0 | 2.6 | 0.00 | 0.00 | 0.00 | 71 | 1016.3 |
| 20260507023032 | 33 | 261 | 0.0 | 3.5 | 0.00 | 0.00 | 0.00 | 71 | 1016.2 |
| 20260507021522 | 33 | 313 | 0.0 | 2.6 | 0.00 | 0.00 | 0.00 | 70 | 1016.0 |
| 20260507020022 | 34 | 287 | 0.0 | 2.6 | 0.00 | 0.00 | 0.00 | 67 | 1015.9 |
| 20260507014517 | 34 | 278 | 0.0 | 2.6 | 0.00 | 0.00 | 0.00 | 65 | 1015.9 |
| 20260507013013 | 36 | 320 | 0.0 | 0.0 | 0.00 | 0.00 | 0.00 | 65 | 1015.8 |
| 20260507011509 | 37 | 261 | 0.9 | 4.3 | 0.00 | 0.00 | 0.00 | 59 | 1015.6 |
| 20260507010013 | 36 | 251 | 0.0 | 4.3 | 0.00 | 0.00 | 0.00 | 61 | 1015.4 |
| 20260507004505 | 37 | 334 | 0.0 | 0.0 | 0.00 | 0.00 | 0.00 | 61 | 1015.4 |
| 20260507003002 | 39 | 322 | 0.0 | 5.2 | 0.00 | 0.00 | 0.00 | 53 | 1015.3 |
| 20260507001559 | 40 | 242 | 2.6 | 7.8 | 0.00 | 0.00 | 0.00 | 51 | 1015.1 |
| 20260507000057 | 40 | 251 | 3.5 | 7.8 | 0.00 | 0.00 | 0.00 | 51 | 1015.1 |
| 20260506234555 | 40 | 247 | 2.6 | 7.8 | 0.00 | 0.00 | 0.00 | 52 | 1015.1 |